Regional Weather Roundup
Issued by NWS

Home | Current Version | Previous Version | Graphics & Text | Print | Product List | Glossary On
Versions: 1 2 3 4 5 6 7 8 9 10 11 12 13 14 15 16 17 18 19 20 21 22 23 24 25 26 27 28 29 30 31 32 33 34 35 36 37 38 39 40 41 42 43 44 45 46 47 48 49 50
000
ASUS43 KLOT 282306
RWRIL

ILLINOIS REGIONAL WEATHER ROUNDUP
NATIONAL WEATHER SERVICE CHICAGO/ROMEOVILLE IL
500 PM CST SAT FEB 28 2015

NOTE: "FAIR" INDICATES FEW OR NO CLOUDS BELOW 12,000 FEET WITH NO
SIGNIFICANT WEATHER AND/OR OBSTRUCTIONS TO VISIBILITY.

* THESE STATIONS ARE NOT UNDER NWS QUALITY CONTROL. THEY ALSO MAY NOT
  REPORT WEATHER SUCH AS PRECIPITATION OR FOG.

ILZ001-002-007-009-015-016-024-010000-
NORTHWEST ILLINOIS

CITY           SKY/WX    TMP DP  RH WIND       PRES   REMARKS
MOLINE         CLOUDY    18   6  59 E9        30.51F WCI   7
STERLING*      MOCLDY    18   9  68 E7        30.52S WCI   8
SAVANNA*       CLOUDY    17   5  59 SE6       30.52S WCI   9
$$

ILZ003-004-008-010-011-017-018-010000-
NORTH CENTRAL ILLINOIS

CITY           SKY/WX    TMP DP  RH WIND       PRES   REMARKS
ROCKFORD       CLOUDY    17   3  54 SE9       30.53F WCI   6
FREEPORT*      MOCLDY    14   5  68 E8        30.52F WCI   3
ROCHELLE*      MOCLDY    16   8  72 E7        30.53F WCI   6
DE KALB*       MOCLDY    16   4  60 SE7       30.52F WCI   6
PERU*          CLOUDY    19  10  67 SE12      30.53S WCI   7
$$

ILZ005-006-012>014-019>023-010000-
NORTHEAST ILLINOIS

CITY           SKY/WX    TMP DP  RH WIND       PRES   REMARKS
CHICAGO-OHARE  CLOUDY    19   2  47 S7        30.54F WCI  10
CHICAGO-MIDWAY MOCLDY    23   3  42 SE9       30.55F WCI  13
AURORA         PTCLDY    20   5  52 SE9       30.53F WCI   9
LANSING*       MOCLDY    21   6  53 SE5       30.56F WCI  14
JOLIET*        CLOUDY    19   8  60 SE7       30.55F WCI  10
WAUKEGAN       CLEAR     18   7  62 SE8       30.54F WCI   8
DUPAGE AIRPORT PTCLDY    19   4  51 S7        30.52F WCI  10
KANKAKEE*      CLOUDY    22  11  65 SE7       30.56F WCI  13
WHEELING       PTCLDY    21  -1  38 S8        30.56F WCI  11
MORRIS*        CLOUDY    20  11  66 E7        30.54F WCI  11
ROMEOVILLE*    MOCLDY    20   6  55 SE9       30.54F WCI   9
NORTHERLY ISL    N/A     20   9  62 E8          N/A  WCI  10
$$

LMZ740>746-010000-
SOUTHERN LAKE MICHIGAN

STATION/POSITION SKY/WX   TEMP    WIND        PRES    VSBY  WAVE
                          AIR SEA DIR/SP/G                  HT/PER
                          (F)     (DEG/KT/KT) (MB)    (MI)  (FT/S)
WAUKEGAN HARBOR            20     140/  9/ 12   N/A
HARRISON CRIB              19     110/ 12/ 13   N/A
BURNHAM HARBOR             20     100/  9/ 10   N/A
CALUMET HARBOR             21     150/  7/  9 1033.7F
MICHIGAN CITY              20     140/  7/  8   N/A
$$

ILZ025>027-034>036-040-047-049-050-058-095>099-010000-
WEST-CENTRAL ILLINOIS

CITY           SKY/WX    TMP DP  RH WIND       PRES   REMARKS
QUINCY         SNOW      20  17  88 E6        30.47F VSB 1/2 WCI  12
GALESBURG*     LGT SNOW  20  16  86 CALM      30.49F VSB 3/4
MACOMB*        LGT SNOW  20  18  91 CALM      30.51F
JACKSONVILLE*  LGT SNOW  23  20  89 E6        30.50S VSB 1   WCI  16
PITTSFIELD*    LGT SNOW  22  19  89 E5        30.49F VSB 3/4 WCI  16
$$

ILZ028>032-037-038-041>044-048-051>054-059>061-010000-
CENTRAL ILLINOIS

CITY           SKY/WX    TMP DP  RH WIND       PRES   REMARKS
PONTIAC        LGT SNOW  21  15  78 E9        30.53F WCI  11
BLOOMINGTON    LGT SNOW  21  12  68 S14       30.51F WCI   8
DECATUR        LGT SNOW  22  17  81 E10       30.51F VSB 1   WCI  11
PEORIA         LGT SNOW  22  15  75 S8        30.51F WCI  12
LACON*         LGT SNOW  19  12  73 E10       30.52F WCI   7
LINCOLN*       LGT SNOW  23  19  83 SE8       30.53F WCI  14
SPRINGFIELD    LGT SNOW  23  18  81 SE7       30.51F VSB 3/4 WCI  15
TAYLORVILLE    LGT SNOW  21  19  93 E7        30.50F VSB 1   WCI  13
$$

ILZ033-039-045-046-055>057-062-063-010000-
EAST-CENTRAL ILLINOIS

CITY           SKY/WX    TMP DP  RH WIND       PRES   REMARKS
CHAMPAIGN      LGT SNOW  22  14  71 E9        30.51F WCI  12
DANVILLE*      CLOUDY    24  11  57 E9        30.49F WCI  14
RANTOUL*       CLOUDY    26  13  58 SE6       30.51F WCI  19
MATTOON        LGT SNOW  22  17  81 SE8       30.49F VSB 3/4 WCI  12
PARIS*         LGT SNOW  25  16  68 SE7       30.53F WCI  17
$$

ILZ079-100>102-010000-
SOUTHWEST ILLINOIS

CITY           SKY/WX    TMP DP  RH WIND       PRES   REMARKS
BELLEVILLE     LGT SNOW  25  25 100 E5        30.47F VSB 1   WCI  19
CAHOKIA*       LGT SNOW  26  23  88 E3        30.48F VSB 3/4
SPARTA*        LGT SNOW  25  24  93 E6        30.47F VSB 3/4 WCI  18
$$

ILZ064>066-069>071-074>076-080>082-084>086-088>090-092>094-010000-
SOUTH-CENTRAL ILLINOIS

CITY           SKY/WX    TMP DP  RH WIND       PRES   REMARKS
CARBONDALE     CLOUDY    30  18  60 NE6       30.46F WCI  24
CAIRO*         CLOUDY    36  20  53 E6        30.45F WCI  31
EFFINGHAM*     SNOW      24  19  83 E6        30.52F VSB 1/2 WCI  17
MARION         CLOUDY    32  18  55 NE9       30.47F WCI  24
MT. VERNON     CLOUDY    27  21  80 NE6       30.49F VSB 1/2 WCI  20
CENTRALIA*     LGT SNOW  26  23  89 E3        30.48F VSB 3/4
SALEM*         LGT SNOW  27  24  87 E6        30.49F VSB 3/4 WCI  21
METROPOLIS*    CLOUDY    35  19  50 E3        30.45F
$$

ILZ067-068-072-073-078-083-087-091-010000-
SOUTHEAST ILLINOIS

CITY           SKY/WX    TMP DP  RH WIND       PRES   REMARKS
LAWRENCEVILLE  CLOUDY    30  15  53 NE6       30.53S WCI  24
FLORA*         LGT SNOW  26  22  83 E6        30.52S WCI  20
FAIRFIELD*     LGT SNOW  28  23  80 NE5       30.50S WCI  23
HARRISBURG*    CLOUDY    31  19  60 NE8       30.47F WCI  24
ROBINSON*      LGT SNOW  28  16  59 CALM      30.54S
CARMI*         CLOUDY    35  22  58 NE5       30.49F WCI  31
$$

ABBREVIATIONS USED IN REMARKS
   TC - TEMPERATURE IN CELSIUS
  WCI - WIND CHILL INDEX
   HX - HEAT INDEX
  VSB - VISIBILITY
$$




USA.gov is the U.S. government's official web portal to all federal, state and local government web resources and services.